DMSP 5D-2 F13 DEB, 40405

Orbit data source: Space-Track

DMSP 5D-2 F13 DEB, 40405 is space debris in SSO originally from a launch on Fri, 24 Mar 1995 UTC launched from the Air Force Western Test Range (AFWTR). Debris objects in space refer to the collection of defunct objects orbiting the Earth. Examples of debris include non-operational satellites, rocket bodies, and fragments generated from explosions, collisions, or faulty payload assembly.

Loading next visibility...
Identifier
40405, 1995-015S
Orbit
SSO
Country
Flag of USUS
Related business
Manufacturer
Unknown
Mission
Spacecraft
Bus & Motor
Unknown
Mass
Unknown
Launch date (UTC)
1995-03-24 (31 years ago)
Launch vehicle
Unknown
Launch site
Air Force Western Test Range (AFWTR)
Object type
Payload
Rocket body
Debris
Shape & HBR
Unknown shape, 0.1 m
Radar Cross Section
Small (<0.1 m²)

Expand to show TLE details & history
Last TLE update: 14 hours ago

TLE from 14 hours ago
0 DMSP 5D-2 F13 DEB
1 40405U 95015S   25340.60694617  .00003088  00000-0  13846-2 0  9999
2 40405  98.8820 358.6320 0123547 134.2740 226.8653 14.19215679555642
Epoch: 2025-12-06T14:34Z
TLE epoch observation values (Epoch: 2025-12-06T14:34:00.149Z)
Latitude
0.00004°
Longitude
64.49911°
Altitude
892.377 km
Speed
7.374 km/s
True Right ascension
23h 54m 31s
True Declination
0° 00' 00"
Sunlit
Object was in daylight at epoch
Visualization orbit readout
Latitude
Unknown
Longitude
Unknown
Altitude
Unknown
Speed
Unknown
Apparent Right ascension
Unknown
Apparent Declination
Unknown
Sunlit
N/A
Visualization observer readout
Local Sidereal Time
02:59:30
Azimuth
Unknown
Elevation
Unknown
Doppler factor
Unknown
Orbital elements
Apogee altitude
914.169 km
Perigee altitude
736.179 km
Semi-major axis
7,203.311 km
Eccentricity
0.01235
Inclination
98.882°
RAAN
358.632°
Arg. of periapsis
134.274°
True anomaly
225.84302°
Mean anomaly
226.8653°
Eccentric anomaly
226.35308°
Mean motion
3.55014 °/min
Orbital period
101.4 mins
BSTAR
0.0013846

Documentation

Showing up to 5 results
|